Terminal Aerodrome Forecast
Issued by NWS Houston/Galveston TX

Current Version | Previous Version | Text Only | Print | Product List | Glossary On
Versions: 1 2 3 4 5 6 7 8 9 10 11 12 13 14 15 16 17 18 19 20 21 22 23 24 25 26 27 28 29 30 31 32 33 34 35 36 37 38 39 40 41 42 43 44 45 46 47 48 49 50
000
FTUS44 KHGX 211427 AAA
TAFHOU
TAF AMD
KHOU 211427Z 2114/2212 09009KT P6SM SCT150
     FM212100 13010KT P6SM FEW050 SCT070
     FM220300 14007KT P6SM SCT015 SCT050
     FM220900 14005KT P6SM SCT010 BKN025=

USA.gov is the U.S. government's official web portal to all federal, state and local government web resources and services.